Home > Weather > Bridgeport > Past weeks

Flag for USA Past Weather in Bridgeport, Connecticut, USA — Yesterday and Last 2 Weeks

Now
70 °F

Sunny.


Feels Like: 75 °F
Forecast: 63 / 85 °F
Wind: No wind

Location: Sikorsky Memorial Airport

Current Time: May 26, 2016 at 8:42:34 AM

Latest Report: May 26, 2016 at 7:52 AM


Visibility: 9 mi

Pressure: 30.11 "Hg

Humidity: 64%

Dew Point: 57 °F

Location of BridgeportLocation

Past Weather in Bridgeport — Graph

°F

Bridgeport Temperature Yesterday

Maximum temperature yesterday: 85 °F (at 4:52 PM)
Minimum temperature yesterday: 55 °F (at 5:52 AM)
Average temperature yesterday: 69 °F

High & Low Weather Summary for the Past Weeks

 TemperatureHumidityPressure
High85 °F (May 25, 4:52 PM)97% (May 13, 7:52 PM)30.25 "Hg (May 13, 7:52 PM)
Low43 °F (May 16, 3:52 AM)18% (May 16, 3:52 PM)29.59 "Hg (May 14, 6:52 PM)
Average60 °F63%29.99 "Hg
* Reported May 11 6:52 AM — May 26 6:52 AM, Bridgeport, Weather by CustomWeather, © 2016

Note: Actual official high and low records may vary slightly from our data, if they occured in-between our weather recording intervals... More about our weather records

Advertising

Bridgeport Weather History for the Previous 24 Hours

Scroll right to see more
 ConditionsComfort  
Time TempWeatherWind HumidityBarometerVisibility
6:52 AM
Thu, May 26
66 °FSunny.No wind70%30.10 "Hg9 mi
5:52 AM63 °FClear.No wind75%30.08 "Hg9 mi
4:52 AM65 °FClear.No wind68%30.07 "Hg10 mi
3:52 AM66 °FClear.No wind63%30.06 "Hg10 mi
2:52 AM63 °FClear.5 mph75%30.05 "Hg10 mi
1:52 AM63 °FClear.No wind78%30.04 "Hg9 mi
12:52 AM64 °FClear.5 mph73%30.04 "Hg10 mi
11:52 PM
Wed, May 25
69 °FClear.No wind57%30.04 "Hg10 mi
10:52 PM68 °FClear.No wind59%30.04 "Hg10 mi
9:52 PM70 °FClear.3 mph57%30.04 "Hg10 mi
8:52 PM71 °FSunny.7 mph53%30.03 "Hg10 mi
7:52 PM73 °FSunny.7 mph51%30.01 "Hg10 mi
6:52 PM77 °FSunny.7 mph40%30.00 "Hg10 mi
5:52 PM79 °FSunny.6 mph36%30.01 "Hg10 mi
4:52 PM85 °FSunny.13 mph28%30.01 "Hg10 mi
3:52 PM81 °FSunny.14 mph35%30.01 "Hg10 mi
2:52 PM80 °FSunny.14 mph38%30.02 "Hg10 mi
1:52 PM77 °FSunny.13 mph45%30.02 "Hg10 mi
12:52 PM75 °FSunny.13 mph47%30.03 "Hg10 mi
11:52 AM75 °FSunny.10 mph48%30.04 "Hg10 mi
10:52 AM70 °FSunny.12 mph57%30.04 "Hg10 mi
9:52 AM69 °FSunny.8 mph63%30.04 "Hg10 mi
8:52 AM65 °FSunny.8 mph73%30.05 "Hg10 mi
Weather by CustomWeather, © 2016

See weather overviewHow to use our weather pages